Regional Weather Roundup
Issued by NWS Binghamton, NY

Home | Current Version | Previous Version | Text Only | Print | Product List | Glossary On
Versions: 1 2 3 4 5 6 7 8 9 10 11 12 13 14 15 16 17 18 19 20 21 22 23 24 25 26
000
ASUS41 KBGM 241510
RWRBGM

REGIONAL WEATHER ROUNDUP
NATIONAL WEATHER SERVICE BINGHAMTON NY
1000 AM EST FRI FEB 24 2017

Note: "fair" indicates few or no clouds below 12,000 feet with no
significant weather and/or obstructions to visibility.

* = Station(s) that does not report precipitation, such as rain,
snow, etc, also no thunder or fog.

NYZ009-015>018-022>025-036-037-044>046-055>057-062-241600
...Central New York...

CITY           SKY/WX    TMP DP  RH WIND       PRES   REMARKS
Binghamton     CLOUDY    59  52  77 S8        29.84S
Cortland       CLOUDY    55  50  82 CALM      29.82S
Dansville      CLOUDY    48  45  89 N3        29.79F
Elmira         CLOUDY    54  47  77 CALM      29.82S
Seneca Falls   CLOUDY    46  46 100 CALM      29.82F FOG
Ithaca         PTSUNNY   59  52  77 SE9       29.82S
Hamilton       CLOUDY    46  45  93 SE7       29.83F
Monticello     MOSUNNY   54  54 100 CALM      29.93S
Norwich        CLOUDY    48  43  81 CALM      29.85S
Oneonta        SUNNY     57  48  72 S3        29.86R
Penn Yan       PTSUNNY   51  45  79 CALM      29.80F
Rome           HVY RAIN  44  44 100 NE6       29.86R FOG
Sidney         CLOUDY    48  48 100 CALM      29.86S
Syracuse       LGT RAIN  44  43  96 SE6       29.82S
$$

PAZ038>040-043-044-047-048-072-241600
...Northeast Pennsylvania...

CITY           SKY/WX    TMP DP  RH WIND       PRES   REMARKS
Hazleton       PTSUNNY   63  52  67 S8        29.93S
Scranton       PTSUNNY   63  53  70 W9        29.88F
$$
&&
KEY
WCI = Wind Chill Index
VSB = Visibility
HX  = Heat Index
$$




USA.gov is the U.S. government's official web portal to all federal, state and local government web resources and services.